Weather in Orlovka

Russia / Novosibirsk Oblast     56°56′27″N   76°19′47″E
temp.,
°C
wind,
m/s
gust,
m/s
humid.,
%
clouds,
%
prec.,
mm/h
press.,
hPa
HPBL,
m
1 march, mon
mon101:00−19e4995100 0.1 1019386
04:00−19ene4995100 0.1 1016340
07:00−19ene41096100 0.3 1015338
10:00−19ene41095100 0.1 1014337
13:00−16ne4894100 0.3 1014389
16:00−14ne4794100 0.1 1013411
19:00−15ne3794100 0.1 1014420
22:00−16ne379598 0.1 1014321
2 march, tue
tue201:00−19ne229890 0.2 101540
04:00−19ne129877 0.1 101523
07:00−20ne019885 0.1 101620
10:00−19sse009879 0.1 101629
13:00−14s119184 0.1 1016359
16:00−12ssw1289100 0.1 1014492
19:00−14s2295100 0.1 101423
22:00−19s229994 0.0 101422
3 march, wed
wed301:00−21s229980 0.0 101420
04:00−20s229980 0.0 101422
07:00−20s239981 0.1 101552
10:00−19s369883 0.0 1014191
13:00−14s379589 0.1 1014377
16:00−11s4893100 0.1 1012492
19:00−12s41193100 0.1 1012577
22:00−14s51194100 0.1 1011521
4 march, thu
thu401:00−14s41094100 0.6 1010522
04:00−12s41193100 0.3 1008517
07:00−9s51293100 0.5 1007539
10:00−6s51292100 0.3 1005688
13:00−2s51093100 0.5 1004840
16:00−1ssw51094100 0.4 1003889
19:00−1s51096100 1.3 1002902
22:00−1s51295100 0.4 1000810
5 march, fri
fri501:00−1ssw51196100 1.3 999773
04:00−2ssw41097100 1.4 998650
07:00−3wsw4992100 3.0 1000574
10:00−8wsw41093100 0.0 1003498
13:00−7wsw51089100 0.0 1006698
16:00−6sw598465 0.0 1008949
19:00−8s5128883 0.0 1007739
22:00−7ssw61493100 0.8 10051124